Vorticity
5 5 5 20 4 8 8 17 28 23 14 14 11 13 18 22 7 20 16 23 25 -3 22 12 26 32 35 -21 6 20 -0 38 8 7 12 7 6 8 6 8 8 9 7 8 9 8 8
5 4 5 18 0 15 9 17 17 13 16 19 17 11 20 43 10 12 13 -4 16 19 8 13 24 16 25 4 -11 11 18 24 34 18 7 11 7 7 8 9 8 10 8 7 9 7 7
4 4 4 14 10 18 10 13 18 21 13 4 4 2 26 17 20 10 16 2 20 26 28 7 13 -8 4 -10 11 26 19 0 27 14 11 9 10 8 7 7 8 10 9 9 8 8 8
3 4 3 11 17 12 9 6 9 22 27 25 19 17 25 25 16 14 10 13 16 10 16 12 11 6 59 -9 31 24 15 25 22 14 8 8 11 7 8 9 7 6 8 8 11 10 10
2 4 5 7 20 7 15 11 9 10 18 29 25 16 31 30 15 8 -1 26 10 4 5 1 18 46 14 6 16 32 -9 10 28 15 6 5 7 9 8 6 7 7 8 10 8 12 10
5 4 5 5 15 10 21 11 7 10 21 2 33 14 27 28 14 10 15 9 9 6 19 13 9 14 -18 -25 4 -4 23 23 9 8 14 7 5 7 9 9 8 8 8 8 11 13 8
6 3 6 4 9 16 8 15 11 7 8 13 12 40 9 14 12 13 -6 6 -4 -1 12 9 19 37 47 -1 14 21 16 13 14 10 7 9 5 5 9 8 9 6 5 6 6 8 8
4 5 5 4 5 12 10 20 13 8 8 9 10 23 31 19 23 12 7 11 12 9 5 11 17 21 42 -35 -23 25 10 34 14 10 5 10 8 8 6 6 6 6 6 5 4 4 5
4 6 6 5 2 8 12 10 22 13 13 9 12 2 21 30 21 15 4 -1 1 29 11 16 21 34 35 -2 13 3 20 25 10 13 12 7 6 5 6 6 5 6 5 5 3 4 4
5 4 4 7 3 3 9 12 9 22 13 15 10 18 3 22 21 1 -1 -4 -14 29 2 10 21 1 41 -19 -2 24 14 16 21 4 6 8 9 8 6 6 5 5 4 6 5 5 3
4 5 5 6 8 2 2 10 11 8 23 15 10 13 21 5 14 23 17 -2 -0 15 4 12 24 17 34 8 33 -7 3 40 24 12 9 9 6 8 8 7 7 6 6 4 6 5 3
7 4 4 6 6 5 4 3 9 11 13 14 23 14 16 13 16 9 9 12 11 17 2 19 30 25 5 -10 30 13 14 21 8 18 8 12 11 6 7 7 6 5 5 5 5 5 3
7 7 4 4 7 7 5 4 2 8 10 16 6 29 19 19 -1 21 10 13 4 27 6 16 6 23 22 35 14 6 5 12 23 1 9 7 9 8 7 5 5 6 5 6 6 5 3
13 7 6 4 4 7 6 7 3 3 5 11 16 11 15 29 14 28 27 27 25 16 14 31 5 24 -6 4 6 10 24 18 14 15 20 2 6 6 7 6 4 4 2 2 4 2 2
6 13 8 4 4 6 6 8 7 3 3 2 10 7 19 2 39 16 17 15 7 16 3 11 32 -3 -1 19 -8 18 7 14 22 7 12 9 6 4 6 4 4 10 4 6 8 11 15
6 9 13 10 2 3 6 5 8 8 4 4 2 4 11 13 16 29 14 18 12 16 9 8 -1 7 2 5 -5 22 14 18 21 8 12 15 7 9 6 8 11 12 8 5 15 18 7
7 6 10 14 10 3 4 4 4 7 9 6 5 2 2 7 13 16 24 18 20 9 3 2 -5 9 4 3 9 9 18 20 7 29 7 8 5 9 7 8 8 15 21 14 7 9 5
3 7 7 6 15 11 2 5 3 4 5 6 8 8 3 3 4 2 16 14 21 13 17 9 5 10 12 4 4 20 22 18 19 19 23 19 12 15 16 18 10 11 12 3 5 9 20
4 5 5 10 4 14 12 2 4 4 5 8 4 6 8 9 5 3 1 4 14 17 18 19 16 16 19 20 20 19 12 14 15 17 19 18 20 15 13 10 4 9 8 8 16 8 10
2 4 6 5 10 7 14 13 2 4 4 5 7 7 5 5 8 12 6 4 2 1 5 11 14 15 14 13 13 12 11 11 11 11 8 9 8 7 8 9 9 13 14 9 8 7 6
2 4 5 5 7 8 9 14 14 4 4 4 3 5 7 6 6 5 7 11 12 9 7 5 3 4 4 3 5 6 7 9 11 10 11 10 11 10 11 11 9 7 3 9 18 14 5
3 5 4 6 4 7 7 9 16 9 9 4 4 5 5 6 5 6 5 4 7 9 7 6 8 10 11 13 17 17 18 15 13 9 8 9 8 6 10 13 16 15 8 5 5 7 5
4 5 5 5 7 6 6 6 6 14 9 14 6 4 4 2 6 6 6 7 6 4 6 8 8 9 9 9 9 8 9 10 11 9 10 8 11 9 9 6 6 7 7 7 6 7 7
3 5 6 5 7 8 6 6 7 5 7 14 11 10 4 4 4 4 4 4 5 6 6 5 5 5 5 6 6 7 7 7 7 7 7 7 8 7 8 8 8 5 8 6 5 5 6
4 5 5 6 5 7 10 6 5 7 5 6 14 6 13 11 5 6 6 4 3 4 4 5 5 4 4 3 3 4 1 4 4 6 6 6 5 7 5 5 3 7 5 3 5 1 3
6 5 4 5 6 6 9 10 6 6 7 7 4 10 10 2 14 13 8 5 4 6 5 3 7 3 4 3 3 3 2 4 2 1 3 4 3 4 5 3 2 3 4 4 2 3 4
6 6 6 3 5 5 7 9 9 6 6 5 9 4 9 10 7 4 4 10 13 14 10 7 6 3 5 7 5 4 4 4 4 5 3 4 3 4 4 4 2 2 4 4 4 8 10
6 7 7 5 6 7 9 9 11 10 7 6 6 7 6 7 6 8 7 5 4 5 4 9 12 13 13 15 10 8 6 5 6 6 8 5 4 6 6 8 14 17 19 15 16 12 12
4 6 7 8 9 8 6 8 9 8 8 8 9 7 8 3 12 7 3 5 7 7 7 6 7 6 4 6 7 5 11 11 12 14 15 17 14 15 15 14 11 8 9 9 7 1 3
Height
5727 5714 5700 5687 5673 5660 5645 5629 5614 5602 5592 5586 5580 5575 5570 5567 5566 5565 5564 5565 5568 5573 5578 5584 5592 5601 5611 5623 5634 5642 5650 5662 5677 5693 5707 5721 5734 5744 5753 5763 5771 5779 5787 5793 5799 5804 5809
5726 5713 5700 5686 5673 5659 5645 5630 5617 5604 5594 5586 5579 5574 5567 5561 5564 5565 5566 5568 5570 5575 5579 5585 5590 5599 5604 5620 5630 5638 5644 5656 5670 5686 5701 5713 5727 5737 5749 5758 5766 5775 5782 5788 5794 5799 5804
5726 5714 5701 5688 5673 5660 5646 5632 5620 5607 5596 5587 5580 5574 5567 5564 5564 5566 5567 5570 5572 5575 5580 5586 5591 5596 5607 5617 5626 5632 5642 5653 5666 5681 5696 5708 5719 5733 5744 5753 5761 5769 5777 5783 5789 5794 5799
5726 5715 5702 5690 5675 5662 5649 5636 5624 5611 5599 5589 5582 5575 5569 5565 5567 5569 5570 5573 5577 5580 5585 5588 5592 5596 5601 5612 5617 5630 5638 5649 5661 5675 5691 5703 5716 5728 5738 5750 5757 5765 5772 5779 5784 5789 5794
5727 5716 5704 5692 5679 5665 5652 5640 5628 5617 5605 5593 5584 5578 5572 5571 5571 5575 5577 5578 5582 5587 5588 5588 5596 5597 5606 5612 5622 5630 5640 5648 5659 5672 5686 5701 5713 5724 5734 5744 5753 5761 5770 5776 5781 5786 5790
5729 5719 5708 5696 5683 5670 5657 5645 5633 5623 5612 5600 5590 5583 5579 5578 5577 5581 5583 5585 5587 5591 5594 5593 5597 5601 5607 5616 5620 5630 5639 5649 5660 5673 5685 5699 5711 5723 5732 5742 5752 5760 5766 5771 5777 5782 5786
5732 5722 5712 5700 5689 5676 5663 5650 5640 5630 5620 5609 5599 5591 5587 5584 5583 5587 5590 5591 5594 5595 5595 5599 5602 5605 5610 5616 5624 5633 5641 5651 5661 5674 5686 5697 5709 5720 5731 5740 5748 5755 5761 5767 5773 5778 5783
5734 5726 5716 5705 5694 5682 5670 5657 5646 5637 5628 5619 5610 5603 5596 5594 5593 5595 5599 5598 5597 5599 5599 5602 5605 5606 5611 5621 5628 5634 5644 5654 5664 5674 5684 5697 5707 5719 5728 5737 5745 5753 5759 5765 5771 5776 5781
5737 5729 5721 5710 5699 5689 5677 5666 5654 5644 5636 5628 5620 5613 5608 5603 5603 5603 5605 5606 5605 5604 5607 5608 5613 5617 5619 5626 5634 5643 5650 5656 5664 5675 5684 5696 5708 5717 5727 5736 5744 5751 5758 5763 5769 5773 5777
5740 5732 5725 5716 5706 5695 5684 5674 5663 5652 5643 5636 5631 5624 5618 5614 5614 5613 5611 5610 5610 5610 5613 5615 5618 5620 5624 5633 5639 5647 5654 5662 5669 5677 5686 5695 5707 5717 5727 5735 5743 5750 5755 5760 5765 5769 5774
5742 5736 5729 5722 5711 5702 5693 5682 5672 5662 5653 5646 5639 5633 5628 5624 5621 5618 5618 5616 5615 5617 5618 5622 5623 5627 5632 5643 5647 5651 5657 5663 5672 5682 5691 5700 5706 5715 5724 5733 5740 5747 5753 5758 5762 5766 5770
5745 5739 5733 5726 5718 5709 5701 5691 5681 5671 5663 5654 5648 5642 5637 5633 5629 5626 5623 5621 5622 5625 5625 5628 5629 5633 5641 5649 5653 5658 5664 5669 5675 5683 5692 5700 5709 5716 5723 5731 5738 5744 5750 5756 5760 5763 5768
5747 5742 5737 5731 5724 5716 5708 5699 5690 5681 5673 5664 5657 5650 5645 5641 5638 5634 5629 5627 5628 5627 5631 5635 5637 5643 5650 5654 5658 5664 5669 5673 5680 5686 5693 5700 5708 5716 5723 5730 5736 5743 5748 5753 5758 5761 5765
5750 5745 5740 5735 5729 5722 5715 5707 5699 5691 5683 5675 5668 5659 5653 5648 5643 5640 5637 5635 5635 5634 5637 5638 5644 5652 5658 5660 5664 5668 5673 5677 5682 5689 5696 5703 5710 5715 5722 5730 5737 5741 5747 5751 5755 5758 5760
5753 5748 5742 5738 5733 5727 5721 5714 5707 5700 5692 5685 5678 5671 5664 5657 5652 5647 5647 5648 5643 5644 5646 5650 5656 5663 5665 5668 5672 5674 5676 5677 5683 5689 5697 5704 5711 5717 5723 5729 5736 5741 5746 5749 5752 5754 5756
5755 5750 5745 5740 5736 5731 5726 5720 5714 5708 5701 5694 5688 5683 5675 5668 5661 5659 5661 5656 5653 5655 5657 5663 5668 5671 5673 5675 5676 5677 5680 5683 5685 5690 5697 5704 5712 5719 5724 5730 5736 5739 5743 5747 5749 5751 5753
5756 5752 5747 5743 5738 5734 5730 5726 5721 5715 5709 5703 5697 5693 5688 5681 5675 5673 5673 5667 5665 5665 5668 5672 5674 5677 5680 5680 5678 5680 5683 5685 5689 5693 5698 5705 5712 5719 5724 5729 5732 5737 5740 5743 5746 5748 5749
5757 5753 5749 5745 5740 5737 5733 5729 5725 5721 5716 5711 5705 5702 5697 5692 5689 5686 5682 5680 5678 5678 5679 5682 5683 5683 5684 5683 5683 5682 5685 5688 5691 5696 5701 5706 5712 5717 5723 5727 5731 5735 5738 5740 5743 5746 5746
5757 5754 5751 5747 5743 5738 5735 5733 5729 5725 5722 5718 5714 5709 5705 5701 5699 5696 5693 5690 5689 5689 5690 5690 5690 5690 5690 5690 5691 5690 5691 5694 5697 5701 5705 5709 5714 5719 5723 5729 5731 5734 5736 5739 5741 5744 5745
5756 5754 5751 5748 5744 5741 5737 5735 5732 5730 5726 5724 5720 5717 5713 5709 5706 5704 5702 5700 5698 5697 5697 5697 5698 5697 5697 5697 5697 5697 5699 5701 5703 5706 5710 5714 5717 5722 5726 5728 5731 5734 5736 5738 5741 5742 5744
5753 5752 5750 5748 5745 5741 5738 5735 5734 5732 5729 5727 5725 5723 5720 5717 5714 5711 5709 5708 5706 5705 5704 5703 5703 5703 5703 5704 5704 5705 5706 5708 5710 5712 5715 5718 5721 5724 5727 5730 5732 5735 5737 5739 5740 5741 5742
5750 5750 5748 5747 5744 5741 5739 5736 5734 5733 5731 5729 5727 5726 5725 5723 5720 5717 5715 5713 5712 5712 5710 5709 5708 5708 5708 5709 5710 5711 5712 5713 5715 5717 5719 5721 5724 5726 5728 5731 5733 5735 5736 5737 5739 5740 5740
5745 5746 5745 5744 5743 5740 5738 5736 5734 5732 5732 5730 5728 5727 5726 5726 5725 5723 5722 5720 5717 5716 5716 5715 5714 5714 5714 5715 5715 5716 5717 5718 5720 5722 5723 5725 5727 5729 5731 5732 5733 5735 5735 5736 5737 5737 5737
5739 5741 5740 5740 5739 5739 5736 5734 5733 5731 5730 5730 5729 5728 5727 5726 5726 5726 5725 5724 5723 5722 5720 5720 5720 5719 5720 5719 5720 5721 5722 5723 5724 5725 5726 5728 5729 5730 5731 5732 5733 5733 5733 5734 5734 5735 5735
5733 5734 5735 5735 5735 5735 5734 5732 5731 5730 5728 5727 5727 5727 5726 5726 5725 5725 5725 5725 5725 5725 5724 5723 5723 5723 5722 5723 5723 5723 5725 5726 5726 5727 5728 5729 5729 5730 5731 5732 5732 5732 5732 5731 5731 5731 5730
5726 5728 5729 5729 5730 5729 5730 5729 5728 5727 5726 5726 5725 5724 5725 5725 5725 5724 5724 5724 5725 5724 5725 5724 5724 5724 5725 5724 5725 5725 5724 5725 5726 5726 5726 5727 5727 5729 5729 5728 5728 5728 5728 5727 5727 5726 5725
5718 5720 5722 5723 5723 5724 5724 5724 5723 5723 5722 5722 5722 5722 5722 5722 5722 5722 5723 5723 5722 5722 5723 5723 5723 5723 5723 5724 5724 5724 5724 5724 5724 5724 5724 5724 5724 5724 5724 5723 5723 5723 5722 5721 5721 5723 5717
5710 5712 5714 5715 5716 5718 5718 5718 5718 5718 5718 5718 5717 5718 5719 5719 5719 5718 5719 5720 5720 5720 5720 5721 5721 5720 5720 5720 5720 5721 5721 5721 5720 5720 5720 5720 5720 5720 5719 5718 5718 5716 5716 5715 5715 5714 5712
5700 5703 5706 5707 5708 5710 5712 5712 5712 5712 5712 5713 5713 5712 5713 5714 5714 5714 5715 5715 5716 5716 5716 5717 5717 5717 5717 5716 5716 5716 5716 5716 5715 5715 5714 5714 5715 5715 5715 5713 5712 5711 5709 5709 5709 5707 5704